Location: *
(90.0000°N, 180.0000°W)
Time: 18:19:42
(UTC+01:00)

Okean O Rocket - Visible Passes

Search period start: 24 February 2017 00:00
Search period end: 06 March 2017 00:00
Orbit: 622 x 646 km, 98.1° (Epoch: 23 February)

Date Brightness Start Highest point End Pass type
(mag) Time Alt. Az. Time Alt. Az. Time Alt. Az.
24 Feb 3.5 01:15:16 10° SSE 01:19:09 30° SW 01:23:02 10° WNW visible
24 Feb 3.5 02:52:44 10° S 02:56:37 30° WSW 03:00:29 10° NW visible
24 Feb 3.5 04:30:12 10° SSW 04:34:04 30° W 04:37:57 10° NNW visible
24 Feb 3.5 06:07:39 10° SW 06:11:32 30° WNW 06:15:25 10° N visible
24 Feb 3.5 07:45:07 10° WSW 07:48:59 30° NW 07:52:52 10° NNE visible
24 Feb 3.5 09:22:35 10° WNW 09:26:28 30° NNW 09:30:20 10° NE visible
24 Feb 3.5 11:00:02 10° NW 11:03:55 30° N 11:07:49 10° ENE visible
24 Feb 3.5 12:37:30 10° NNW 12:41:23 30° NE 12:45:16 10° E visible
24 Feb 3.5 14:14:58 10° N 14:18:51 30° ENE 14:22:44 10° ESE visible
24 Feb 3.5 15:52:26 10° NNE 15:56:19 30° E 16:00:11 10° SE visible
24 Feb 3.5 17:29:54 10° NE 17:33:46 30° ESE 17:37:39 10° S visible
24 Feb 3.5 19:07:21 10° ENE 19:11:14 30° SE 19:15:07 10° SSW visible
24 Feb 3.5 20:44:49 10° E 20:48:42 30° SSE 20:52:35 10° SW visible
24 Feb 3.5 22:22:17 10° ESE 22:26:09 30° S 22:30:02 10° WSW visible
24 Feb 3.5 23:59:44 10° SE 00:03:38 30° SSW 00:07:30 10° W visible
25 Feb 3.5 01:37:12 10° SSE 01:41:05 30° SW 01:44:58 10° WNW visible
25 Feb 3.5 03:14:40 10° S 03:18:33 30° WSW 03:22:26 10° NW visible
25 Feb 3.5 04:52:08 10° SW 04:56:00 30° W 04:59:53 10° NNW visible
25 Feb 3.5 06:29:35 10° WSW 06:33:28 30° WNW 06:37:21 10° N visible
25 Feb 3.5 08:07:03 10° W 08:10:56 30° NW 08:14:49 10° NNE visible
25 Feb 3.5 09:44:31 10° WNW 09:48:24 30° N 09:52:17 10° NE visible
25 Feb 3.5 11:21:59 10° NW 11:25:51 30° NNE 11:29:44 10° ENE visible
25 Feb 3.5 12:59:26 10° NNW 13:03:19 30° NE 13:07:11 10° ESE visible
25 Feb 3.5 14:36:54 10° N 14:40:47 30° ENE 14:44:40 10° SE visible
25 Feb 3.5 16:14:21 10° NNE 16:18:15 30° E 16:22:07 10° SSE visible
25 Feb 3.5 17:51:50 10° NE 17:55:42 30° ESE 17:59:35 10° S visible
25 Feb 3.5 19:29:17 10° ENE 19:33:10 30° SE 19:37:03 10° SSW visible
25 Feb 3.5 21:06:45 10° E 21:10:38 30° SSE 21:14:31 10° SW visible
25 Feb 3.5 22:44:13 10° ESE 22:48:06 30° S 22:51:58 10° WSW visible
26 Feb 3.5 00:21:41 10° SSE 00:25:33 30° SSW 00:29:26 10° W visible
26 Feb 3.5 01:59:09 10° S 02:03:01 30° SW 02:06:54 10° WNW visible
26 Feb 3.5 03:36:36 10° SSW 03:40:28 30° WSW 03:44:22 10° NW visible
26 Feb 3.5 05:14:04 10° SW 05:17:57 30° WNW 05:21:49 10° NNW visible
26 Feb 3.5 06:51:32 10° WSW 06:55:24 30° NW 06:59:17 10° N visible
26 Feb 3.5 08:28:59 10° W 08:32:52 30° NNW 08:36:45 10° NE visible
26 Feb 3.5 10:06:27 10° WNW 10:10:19 30° N 10:14:13 10° ENE visible
26 Feb 3.5 11:43:55 10° NW 11:47:47 30° NNE 11:51:40 10° E visible
26 Feb 3.5 13:21:22 10° NNW 13:25:15 30° NE 13:29:08 10° ESE visible
26 Feb 3.5 14:58:50 10° N 15:02:42 30° ENE 15:06:35 10° SE visible
26 Feb 3.5 16:36:18 10° NNE 16:40:10 30° E 16:44:03 10° SSE visible
26 Feb 3.5 18:13:45 10° NE 18:17:38 30° ESE 18:21:31 10° S visible
26 Feb 3.5 19:51:13 10° E 19:55:06 30° SE 19:58:59 10° SSW visible
26 Feb 3.5 21:28:41 10° ESE 21:32:33 30° SSE 21:36:26 10° SW visible
26 Feb 3.5 23:06:09 10° SE 23:10:01 30° S 23:13:54 10° WSW visible
27 Feb 3.5 00:43:36 10° SSE 00:47:29 30° SW 00:51:22 10° W visible
27 Feb 3.5 02:21:04 10° S 02:24:57 30° WSW 02:28:50 10° WNW visible
27 Feb 3.5 03:58:32 10° SSW 04:02:24 30° W 04:06:17 10° NW visible
27 Feb 3.5 05:36:00 10° SW 05:39:52 30° WNW 05:43:45 10° N visible
27 Feb 3.5 07:13:27 10° WSW 07:17:20 30° NW 07:21:13 10° NNE visible
27 Feb 3.5 08:50:55 10° W 08:54:48 30° NNW 08:58:41 10° NE visible
27 Feb 3.5 10:28:23 10° WNW 10:32:15 30° N 10:36:08 10° ENE visible
27 Feb 3.5 12:05:51 10° NW 12:09:43 30° NNE 12:13:37 10° E visible
27 Feb 3.5 13:43:18 10° NNW 13:47:11 30° NE 13:51:03 10° ESE visible
27 Feb 3.5 15:20:46 10° NNE 15:24:39 30° ENE 15:28:32 10° SE visible
27 Feb 3.5 16:58:14 10° NE 17:02:06 30° E 17:05:59 10° SSE visible
27 Feb 3.5 18:35:42 10° ENE 18:39:34 30° ESE 18:43:27 10° S visible
27 Feb 3.5 20:13:09 10° E 20:17:02 30° SSE 20:20:55 10° SSW visible
27 Feb 3.5 21:50:37 10° ESE 21:54:30 30° S 21:58:23 10° SW visible
27 Feb 3.5 23:28:04 10° SE 23:31:57 30° SSW 23:35:51 10° WSW visible
28 Feb 3.5 01:05:32 10° SSE 01:09:25 30° SW 01:13:18 10° WNW visible
28 Feb 3.5 02:43:00 10° S 02:46:53 30° WSW 02:50:46 10° NW visible
28 Feb 3.5 04:20:28 10° SSW 04:24:21 30° W 04:28:14 10° NNW visible
28 Feb 3.5 05:57:55 10° SW 06:01:48 30° WNW 06:05:41 10° N visible
28 Feb 3.5 07:35:23 10° WSW 07:39:16 30° NW 07:43:09 10° NNE visible
28 Feb 3.5 09:12:51 10° W 09:16:44 30° NNW 09:20:36 10° NE visible
28 Feb 3.5 10:50:19 10° NW 10:54:12 30° N 10:58:05 10° ENE visible
28 Feb 3.5 12:27:46 10° NNW 12:31:39 30° NNE 12:35:32 10° E visible
28 Feb 3.5 14:05:14 10° N 14:09:07 30° NE 14:13:00 10° ESE visible
28 Feb 3.5 15:42:42 10° NNE 15:46:35 30° E 15:50:27 10° SE visible
28 Feb 3.5 17:20:10 10° NE 17:24:02 30° ESE 17:27:55 10° SSE visible
28 Feb 3.5 18:57:37 10° ENE 19:01:30 30° SE 19:05:23 10° S visible
28 Feb 3.5 20:35:05 10° E 20:38:57 30° SSE 20:42:51 10° SW visible
28 Feb 3.5 22:12:33 10° ESE 22:16:26 30° S 22:20:19 10° WSW visible
28 Feb 3.5 23:50:01 10° SE 23:53:53 30° SSW 23:57:47 10° W visible
01 Mar 3.5 01:27:28 10° SSE 01:31:21 30° SW 01:35:14 10° WNW visible
01 Mar 3.5 03:04:56 10° S 03:08:49 30° WSW 03:12:42 10° NW visible
01 Mar 3.5 04:42:24 10° SSW 04:46:16 30° W 04:50:10 10° NNW visible
01 Mar 3.5 06:19:51 10° WSW 06:23:44 30° WNW 06:27:38 10° N visible
01 Mar 3.5 07:57:19 10° W 08:01:12 30° NW 08:05:05 10° NNE visible
01 Mar 3.5 09:34:47 10° WNW 09:38:40 30° NNW 09:42:33 10° NE visible
01 Mar 3.5 11:12:15 10° NW 11:16:07 30° NNE 11:20:01 10° ENE visible
01 Mar 3.5 12:49:42 10° NNW 12:53:35 30° NE 12:57:28 10° E visible
01 Mar 3.5 14:27:10 10° N 14:31:03 30° ENE 14:34:56 10° ESE visible
01 Mar 3.5 16:04:38 10° NNE 16:08:30 30° E 16:12:24 10° SSE visible
01 Mar 3.5 17:42:06 10° NE 17:45:58 30° ESE 17:49:52 10° S visible
01 Mar 3.5 19:19:33 10° ENE 19:23:26 30° SE 19:27:19 10° SSW visible
01 Mar 3.5 20:57:01 10° E 21:00:54 30° SSE 21:04:47 10° SW visible
01 Mar 3.5 22:34:28 10° ESE 22:38:21 30° S 22:42:15 10° WSW visible
02 Mar 3.5 00:11:56 10° SE 00:15:49 30° SSW 00:19:43 10° W visible
02 Mar 3.5 01:49:24 10° S 01:53:17 30° SW 01:57:10 10° WNW visible
02 Mar 3.5 03:26:52 10° SSW 03:30:44 30° WSW 03:34:38 10° NW visible
02 Mar 3.5 05:04:19 10° SW 05:08:13 30° W 05:12:06 10° NNW visible
02 Mar 3.5 06:41:47 10° WSW 06:45:40 30° NW 06:49:33 10° N visible
02 Mar 3.5 08:19:14 10° W 08:23:08 30° NNW 08:27:01 10° NNE visible
02 Mar 3.5 09:56:43 10° WNW 10:00:35 30° N 10:04:29 10° NE visible
02 Mar 3.5 11:34:11 10° NW 11:38:04 30° NNE 11:41:57 10° E visible
02 Mar 3.5 13:11:38 10° NNW 13:15:31 30° NE 13:19:24 10° ESE visible
02 Mar 3.5 14:49:06 10° N 14:52:59 30° ENE 14:56:52 10° SE visible
02 Mar 3.5 16:26:34 10° NNE 16:30:26 30° E 16:34:20 10° SSE visible
02 Mar 3.5 18:04:01 10° NE 18:07:54 30° ESE 18:11:47 10° S visible
02 Mar 3.5 19:41:29 10° ENE 19:45:22 30° SE 19:49:15 10° SSW visible
02 Mar 3.5 21:18:57 10° ESE 21:22:49 30° SSE 21:26:43 10° SW visible
02 Mar 3.5 22:56:25 10° SE 23:00:17 30° S 23:04:11 10° WSW visible
03 Mar 3.5 00:33:52 10° SSE 00:37:45 30° SSW 00:41:38 10° W visible
03 Mar 3.5 02:11:20 10° S 02:15:13 30° WSW 02:19:06 10° WNW visible
03 Mar 3.5 03:48:48 10° SSW 03:52:40 30° W 03:56:34 10° NW visible
03 Mar 3.5 05:26:16 10° SW 05:30:08 30° WNW 05:34:02 10° NNW visible
03 Mar 3.5 07:03:43 10° WSW 07:07:36 30° NW 07:11:29 10° NNE visible
03 Mar 3.5 08:41:11 10° W 08:45:04 30° NNW 08:48:57 10° NE visible
03 Mar 3.5 10:18:39 10° WNW 10:22:31 30° N 10:26:25 10° ENE visible
03 Mar 3.5 11:56:06 10° NW 11:59:59 30° NNE 12:03:53 10° E visible
03 Mar 3.5 13:33:34 10° NNW 13:37:27 30° NE 13:41:20 10° ESE visible
03 Mar 3.5 15:11:02 10° N 15:14:55 30° ENE 15:18:48 10° SE visible
03 Mar 3.5 16:48:29 10° NE 16:52:22 30° E 16:56:15 10° SSE visible
03 Mar 3.5 18:25:57 10° ENE 18:29:50 30° ESE 18:33:44 10° S visible
03 Mar 3.5 20:03:25 10° E 20:07:18 30° SE 20:11:11 10° SSW visible
03 Mar 3.5 21:40:53 10° ESE 21:44:45 30° S 21:48:39 10° SW visible
03 Mar 3.5 23:18:20 10° SE 23:22:13 30° SSW 23:26:06 10° WSW visible
04 Mar 3.5 00:55:48 10° SSE 00:59:41 30° SW 01:03:35 10° W visible
04 Mar 3.5 02:33:16 10° S 02:37:09 30° WSW 02:41:02 10° NW visible
04 Mar 3.5 04:10:44 10° SSW 04:14:36 30° W 04:18:30 10° NNW visible
04 Mar 3.5 05:48:11 10° SW 05:52:04 30° WNW 05:55:57 10° N visible
04 Mar 3.5 07:25:39 10° WSW 07:29:32 30° NW 07:33:26 10° NNE visible
04 Mar 3.5 09:03:06 10° W 09:07:00 30° NNW 09:10:54 10° NE visible
04 Mar 3.5 10:40:34 10° WNW 10:44:28 30° N 10:48:21 10° ENE visible
04 Mar 3.5 12:18:02 10° NNW 12:21:56 30° NNE 12:25:49 10° E visible
04 Mar 3.5 13:55:30 10° N 13:59:23 30° NE 14:03:16 10° ESE visible
04 Mar 3.5 15:32:57 10° NNE 15:36:50 30° ENE 15:40:44 10° SE visible
04 Mar 3.5 17:10:25 10° NE 17:14:19 30° ESE 17:18:12 10° SSE visible
04 Mar 3.5 18:47:53 10° ENE 18:51:46 30° SE 18:55:39 10° S visible
04 Mar 3.5 20:25:21 10° E 20:29:14 30° SSE 20:33:07 10° SSW visible
04 Mar 3.5 22:02:48 10° ESE 22:06:41 30° S 22:10:35 10° WSW visible
04 Mar 3.5 23:40:16 10° SE 23:44:09 30° SSW 23:48:03 10° W visible
05 Mar 3.5 01:17:44 10° SSE 01:21:37 30° SW 01:25:30 10° WNW visible
05 Mar 3.5 02:55:12 10° S 02:59:04 30° WSW 03:02:58 10° NW visible
05 Mar 3.5 04:32:39 10° SSW 04:36:32 30° W 04:40:26 10° NNW visible
